Ithaca, NY

8:13 AM EDT on July 23, 2017 (GMT -0400)
Tompkins County

Weather History for KITH - November, 2012

Change the Weather History Date:

Friday, November 30, 2012

  Actual Average Record
Temperature  
Mean Temperature 30 °F -  
Max Temperature 32 °F 39 °F 66 °F (1998)
Min Temperature 28 °F 27 °F -4 °F (1976)
Degree Days  
Heating Degree Days 35    
Moisture  
Dew Point 26 °F    
Average Humidity 90    
Maximum Humidity 100    
Minimum Humidity 57    
Precipitation  
Precipitation 0.00 in - - ()
Sea Level Pressure  
Sea Level Pressure 30.37 in    
Wind  
Wind Speed 4 mph (WNW)    
Max Wind Speed 7 mph    
Max Gust Speed -    
Visibility 6 miles    
Events Snow    
Averages and records for this station are not official NWS values.
T = Trace of Precipitation, MM = Missing Value Source: NWS Daily Summary

Daily Weather History Graph

Daily Weather History Graph

Search for Another Location

Airport or City:

Trip Planner

Search our weather history database for the weather conditions in past years. The results will help you decide how hot, cold, wet, or windy it might be!

Date:

Astronomy

Nov. 30, 2012 Rise Set
Actual Time 7:15 AM EST 4:34 PM EST
Civil Twilight 6:43 AM EST 5:05 PM EST
Nautical Twilight 6:08 AM EST 5:40 PM EST
Astronomical Twilight 5:34 AM EST 6:14 PM EST
Moon 6:27 PM EST (11/30) 8:45 AM EST (11/30)
Length of Visible Light 10h 21m
Length of Day
9h 18m
Waning Gibbous, 96% of the Moon is Illuminated
Nov 30
Waning Gibbous
Dec 6
Last Quarter
Dec 13
New
Dec 20
First Quarter
Dec 28
Full

Hourly Weather History & Observations

Time (EST) Temp. Windchill Dew Point Humidity Pressure Visibility Wind Dir Wind Speed Gust Speed Precip Events Conditions
12:56 AM 31.1 °F 27.7 °F 19.0 °F 61% 30.29 in 10.0 mi WSW 3.5 mph - N/A   Overcast
1:56 AM 32.9 °F 27.5 °F 19.0 °F 57% 30.30 in 10.0 mi West 5.8 mph - N/A   Mostly Cloudy
2:56 AM 31.1 °F 24.5 °F 27.1 °F 85% 30.32 in 10.0 mi NW 6.9 mph - N/A   Mostly Cloudy
3:56 AM 29.1 °F 23.0 °F 27.1 °F 92% 30.33 in 9.0 mi WNW 5.8 mph - N/A   Overcast
4:04 AM 28.4 °F 23.3 °F 26.6 °F 93% 30.30 in 9.0 mi NW 4.6 mph - N/A   Overcast
4:32 AM 30.2 °F 25.4 °F 26.6 °F 86% 30.31 in 10.0 mi NNW 4.6 mph - N/A   Overcast
4:56 AM 30.0 °F 26.5 °F 27.1 °F 89% 30.35 in 10.0 mi NW 3.5 mph - N/A   Overcast
5:56 AM 29.1 °F 24.1 °F 27.1 °F 92% 30.37 in 10.0 mi NW 4.6 mph - N/A   Overcast
6:29 AM 28.4 °F 23.3 °F 26.6 °F 93% 30.33 in 10.0 mi WNW 4.6 mph - N/A   Overcast
6:56 AM 28.0 °F 24.2 °F 27.1 °F 96% 30.38 in 10.0 mi NW 3.5 mph - N/A   Overcast
7:15 AM 28.4 °F 24.6 °F 26.6 °F 93% 30.36 in 10.0 mi WNW 3.5 mph - N/A   Overcast
7:56 AM 28.0 °F 21.7 °F 26.1 °F 92% 30.42 in 10.0 mi WNW 5.8 mph - N/A   Overcast
8:56 AM 28.0 °F 22.8 °F 24.1 °F 85% 30.41 in 10.0 mi West 4.6 mph - N/A   Overcast
9:56 AM 28.0 °F 22.8 °F 25.2 °F 89% 30.43 in 10.0 mi NW 4.6 mph - N/A   Overcast
10:56 AM 28.0 °F 24.2 °F 24.1 °F 85% 30.43 in 3.0 mi WNW 3.5 mph - 0.00 in Snow Light Snow
11:31 AM 28.4 °F - 24.8 °F 86% 30.36 in 1.5 mi Calm Calm - 0.00 in Snow Light Snow
11:56 AM 29.1 °F 24.1 °F 26.1 °F 88% 30.41 in 2.0 mi West 4.6 mph - 0.00 in Snow Light Snow
12:56 PM 28.0 °F 24.2 °F 26.1 °F 92% 30.40 in 2.0 mi NW 3.5 mph - 0.00 in Snow Light Snow
1:56 PM 28.0 °F 24.2 °F 27.1 °F 96% 30.39 in 3.0 mi WNW 3.5 mph - 0.00 in Snow Light Snow
2:03 PM 28.4 °F - 26.6 °F 93% 30.35 in 3.0 mi Calm Calm - 0.00 in Snow Light Snow
2:56 PM 28.0 °F - 27.1 °F 96% 30.39 in 3.0 mi Calm Calm - 0.00 in Snow Light Snow
3:31 PM 28.4 °F - 26.6 °F 93% 30.35 in 1.0 mi Calm Calm - 0.00 in Snow Light Snow
3:56 PM 29.1 °F - 27.1 °F 92% 30.39 in 1.0 mi Calm Calm - 0.00 in Snow Light Snow
4:56 PM 29.1 °F - 27.1 °F 92% 30.38 in 1.0 mi Calm Calm - 0.00 in Snow Light Snow
4:59 PM 28.4 °F - 26.6 °F 93% 30.34 in 2.0 mi Calm Calm - 0.00 in Snow Light Snow
5:07 PM 28.4 °F - 28.4 °F 100% 30.33 in 1.0 mi Calm Calm - 0.00 in Snow Light Snow
5:43 PM 30.2 °F 25.4 °F 28.4 °F 93% 30.33 in 4.0 mi East 4.6 mph - 0.00 in   Overcast
5:56 PM 30.0 °F - 29.1 °F 96% 30.38 in 5.0 mi Calm Calm - 0.00 in   Overcast
6:56 PM 29.1 °F - 28.0 °F 96% 30.39 in 4.0 mi Calm Calm - N/A   Overcast
7:56 PM 30.0 °F 26.5 °F 29.1 °F 96% 30.39 in 5.0 mi East 3.5 mph - N/A   Overcast
8:56 PM 30.0 °F - 29.1 °F 96% 30.39 in 4.0 mi Calm Calm - N/A   Overcast
10:56 PM 31.1 °F - 29.1 °F 92% 30.40 in 8.0 mi Calm Calm - N/A   Overcast
11:56 PM 31.1 °F 27.7 °F 27.1 °F 85% 30.40 in 10.0 mi SE 3.5 mph - N/A   Mostly Cloudy